GW4318 Weather Reports


Display with metric or nautical units.
time (UTC)temp
F
wind
direction
speed
MPH
gust
MPH
rain 1hr
in
rain 24hr
in
rain mn
in
humidity
%
barometer
mb
20260901110025 65 127 0.0 1.0 0.00 0.00 0.00 94 1017.8
20260901105025 65 314 0.0 1.0 0.00 0.00 0.00 94 1017.8
20260901104026 65 161 0.0 1.0 0.00 0.00 0.00 94 1017.7
20260901103026 65 138 0.0 1.0 0.00 0.00 0.00 93 1017.6
20260901102046 65 74 0.0 1.0 0.00 0.00 0.00 93 1017.5
20260901101025 65 0.0 0.0 0.00 0.00 0.00 92 1017.5
20260901100026 65 116 0.0 1.0 0.00 0.00 0.00 92 1017.4
20260901095026 65 102 0.0 1.0 0.00 0.00 0.00 91 1017.3
20260901094026 65 55 0.0 1.0 0.00 0.00 0.00 90 1017.4
20260901093026 65 0.0 0.0 0.00 0.00 0.00 89 1017.4
20260901092026 66 171 0.0 0.0 0.00 0.00 0.00 88 1017.4
20260901091026 66 92 0.0 1.0 0.00 0.00 0.00 87 1017.4
20260901090027 66 130 0.0 2.0 0.00 0.00 0.00 87 1017.4
20260901085027 66 93 0.0 1.0 0.00 0.00 0.00 86 1017.4
20260901084027 66 0.0 0.0 0.00 0.00 0.00 84 1017.4
20260901083107 66 98 0.0 2.0 0.00 0.00 0.00 83 1017.4
20260901082027 66 80 0.0 1.0 0.00 0.00 0.00 83 1017.5
20260901081027 66 103 1.0 2.0 0.00 0.00 0.00 82 1017.6
20260901080047 66 122 0.0 1.0 0.00 0.00 0.00 82 1017.6
20260901075028 67 98 1.0 2.0 0.00 0.00 0.00 82 1017.7
20260901074028 66 141 0.0 1.0 0.00 0.00 0.00 81 1017.8
20260901073048 66 95 1.0 2.0 0.00 0.00 0.00 81 1017.7
20260901072028 66 83 0.0 1.0 0.00 0.00 0.00 81 1017.9
20260901071028 66 80 0.0 0.0 0.00 0.00 0.00 81 1017.9
20260901070028 66 118 0.0 1.0 0.00 0.00 0.00 81 1017.9
20260901065028 66 123 0.0 1.0 0.00 0.00 0.00 81 1017.9
20260901064030 66 103 0.0 1.0 0.00 0.00 0.00 80 1017.9
20260901063029 66 132 0.0 2.0 0.00 0.00 0.00 80 1018.0
20260901062029 67 101 0.0 1.0 0.00 0.00 0.00 79 1018.1
20260901061029 67 210 0.0 1.0 0.00 0.00 0.00 78 1018.1
20260901060049 67 222 0.0 2.0 0.00 0.00 0.00 77 1018.1
20260901055029 67 107 0.0 1.0 0.00 0.00 0.00 77 1018.0
20260901054029 67 242 1.0 3.0 0.00 0.00 0.00 77 1018.0
20260901053029 67 125 0.0 1.0 0.00 0.00 0.00 76 1018.2
20260901052130 67 99 0.0 1.0 0.00 0.00 0.00 75 1018.0
20260901051030 68 100 1.0 2.0 0.00 0.00 0.00 73 1018.0
20260901050030 68 103 1.0 2.0 0.00 0.00 0.00 73 1018.1
20260901045052 68 123 1.0 1.0 0.00 0.00 0.00 73 1018.2
20260901044030 68 105 0.0 1.0 0.00 0.00 0.00 74 1018.2
20260901043030 68 115 1.0 2.0 0.00 0.00 0.00 74 1018.2
20260901042031 68 94 0.0 2.0 0.00 0.00 0.00 75 1018.1
20260901041030 68 112 1.0 2.0 0.00 0.00 0.00 75 1018.1
20260901040051 68 98 2.0 4.0 0.00 0.00 0.00 78 1018.2
20260901035030 68 89 1.0 2.0 0.00 0.00 0.00 80 1018.3
20260901034033 68 145 1.0 3.0 0.00 0.00 0.00 82 1018.4
20260901033031 68 79 1.0 2.0 0.00 0.00 0.00 82 1018.3
20260901032039 68 97 0.0 3.0 0.00 0.00 0.00 83 1018.3
20260901031016 68 78 1.0 2.0 0.00 0.00 0.00 82 1018.2
20260901030021 68 235 0.0 2.0 0.00 0.00 0.00 82 1018.2
20260901025040 68 89 1.0 2.0 0.00 0.00 0.00 82 1018.2
20260901024020 68 136 0.0 1.0 0.00 0.00 0.00 82 1018.2
20260901023057 69 98 0.0 2.0 0.00 0.00 0.00 81 1018.2
20260901022017 69 97 1.0 2.0 0.00 0.00 0.00 81 1018.2
20260901021017 69 84 1.0 2.0 0.00 0.00 0.00 80 1018.2
20260901020040 69 96 1.0 3.0 0.00 0.00 0.00 80 1018.2
20260901015017 69 95 1.0 4.0 0.00 0.00 0.00 79 1018.2
20260901014038 69 175 1.0 2.0 0.00 0.00 0.00 78 1018.3
20260901013018 69 87 1.0 3.0 0.00 0.00 0.00 77 1018.3
20260901012018 69 310 0.0 3.0 0.00 0.00 0.00 76 1018.3
20260901011018 70 14 0.0 2.0 0.00 0.00 0.00 75 1018.4
20260901010019 70 79 0.0 2.0 0.00 0.00 0.00 74 1018.3
20260901005018 69 99 1.0 4.0 0.00 0.00 0.00 73 1018.2
20260901004018 69 98 0.0 2.0 0.00 0.00 0.00 73 1018.0
20260901003039 69 85 1.0 2.0 0.00 0.00 0.00 73 1018.0
20260901002016 68 96 1.0 2.0 0.00 0.00 0.00 75 1017.9
20260901001019 67 100 1.0 2.0 0.00 0.00 0.00 80 1017.9
20260901000019 67 141 0.0 1.0 0.00 0.00 0.00 80 1017.9
20260831235039 67 192 0.0 1.0 0.00 0.00 0.00 80 1018.0
20260831234017 68 188 0.0 1.0 0.00 0.00 0.00 77 1018.2
20260831233037 69 128 0.0 1.0 0.00 0.00 0.00 74 1018.3
20260831232017 70 121 1.0 2.0 0.00 0.00 0.00 71 1018.3
20260831231100 71 120 0.0 1.0 0.00 0.00 0.00 69 1018.4
20260831230040 72 116 1.0 2.0 0.00 0.00 0.00 67 1018.4
20260831225017 72 120 0.0 2.0 0.00 0.00 0.00 64 1018.5
20260831224037 73 108 0.0 1.0 0.00 0.00 0.00 63 1018.5
20260831223037 74 113 1.0 1.0 0.00 0.00 0.00 61 1018.5
20260831222020 75 141 0.0 1.0 0.00 0.00 0.00 59 1018.5
20260831221020 76 272 0.0 1.0 0.00 0.00 0.00 56 1018.5
20260831220017 76 193 1.0 3.0 0.00 0.00 0.00 54 1018.4
20260831215018 77 23 1.0 3.0 0.00 0.00 0.00 54 1018.3
20260831214018 77 282 0.0 2.0 0.00 0.00 0.00 53 1018.4
20260831213018 77 139 1.0 2.0 0.00 0.00 0.00 53 1018.5
20260831212019 77 116 1.0 3.0 0.00 0.00 0.00 53 1018.6
20260831211018 77 82 0.0 3.0 0.00 0.00 0.00 53 1018.6
20260831210018 77 180 0.0 2.0 0.00 0.00 0.00 54 1018.6
20260831205019 78 314 2.0 4.0 0.00 0.00 0.00 51 1018.6
20260831204019 78 243 0.0 2.0 0.00 0.00 0.00 53 1018.7
20260831203019 78 135 1.0 3.0 0.00 0.00 0.00 50 1018.6
20260831202019 79 287 1.0 3.0 0.00 0.00 0.00 49 1018.5
20260831201019 78 326 1.0 5.0 0.00 0.00 0.00 49 1018.6
20260831200019 78 303 2.0 5.0 0.00 0.00 0.00 49 1018.7
20260831195017 79 320 2.0 4.0 0.00 0.00 0.00 47 1018.7
20260831194016 78 169 2.0 4.0 0.00 0.00 0.00 48 1018.9
20260831193019 78 302 1.0 4.0 0.00 0.00 0.00 48 1018.9
20260831192020 78 133 1.0 3.0 0.00 0.00 0.00 48 1019.0
20260831191020 77 102 2.0 5.0 0.00 0.00 0.00 48 1019.1
20260831190017 78 301 1.0 4.0 0.00 0.01 0.00 47 1019.1
20260831185017 79 128 1.0 3.0 0.00 0.04 0.00 46 1019.1
20260831184017 79 99 1.0 3.0 0.00 0.05 0.00 43 1019.2
20260831183020 78 284 1.0 2.0 0.00 0.05 0.00 47 1019.5
20260831182020 78 314 1.0 5.0 0.00 0.05 0.00 46 1019.5
20260831181017 78 166 1.0 4.0 0.00 0.05 0.00 46 1019.6
20260831180018 77 265 1.0 2.0 0.00 0.05 0.00 46 1019.5
20260831175018 77 123 2.0 4.0 0.00 0.05 0.00 46 1019.5
20260831174018 77 291 1.0 3.0 0.00 0.05 0.00 47 1019.6
20260831173038 78 109 2.0 4.0 0.00 0.05 0.00 45 1019.8
20260831172039 79 174 2.0 3.0 0.00 0.05 0.00 48 1019.9
20260831171038 76 53 1.0 4.0 0.00 0.05 0.00 47 1019.9
20260831170019 76 125 2.0 4.0 0.00 0.05 0.00 47 1020.0
20260831165019 76 239 1.0 3.0 0.00 0.05 0.00 47 1020.2
20260831164016 76 160 2.0 6.0 0.00 0.05 0.00 47 1020.2
20260831163059 75 317 1.0 4.0 0.00 0.05 0.00 48 1020.3
20260831161020 77 123 2.0 4.0 0.00 0.05 0.00 47 1020.4
20260831160019 75 129 1.0 4.0 0.00 0.05 0.00 49 1020.6
20260831155019 75 294 1.0 4.0 0.00 0.05 0.00 51 1020.6
20260831154037 76 270 2.0 5.0 0.00 0.05 0.00 49 1020.7
20260831153020 75 308 1.0 3.0 0.00 0.05 0.00 51 1020.8
20260831152019 73 249 1.0 3.0 0.00 0.05 0.00 52 1020.8
20260831151017 74 262 2.0 4.0 0.00 0.05 0.00 50 1020.9
20260831150017 73 269 1.0 4.0 0.00 0.05 0.00 52 1020.9
20260831145017 73 290 1.0 4.0 0.00 0.05 0.00 52 1020.9
20260831144017 73 348 1.0 3.0 0.00 0.05 0.00 52 1021.0
20260831143020 73 80 2.0 5.0 0.00 0.05 0.00 52 1021.0
20260831142018 72 164 1.0 3.0 0.00 0.05 0.00 54 1021.0
20260831141018 72 129 1.0 4.0 0.00 0.05 0.00 54 1020.8
20260831140018 71 135 2.0 6.0 0.00 0.05 0.00 54 1020.8
20260831135037 70 95 1.0 4.0 0.00 0.05 0.00 59 1020.9
20260831134040 70 130 2.0 5.0 0.00 0.05 0.00 60 1020.9
20260831133018 69 113 1.0 3.0 0.00 0.05 0.00 62 1020.8
20260831132018 68 111 1.0 3.0 0.00 0.05 0.00 63 1020.8
20260831131019 67 110 1.0 3.0 0.00 0.05 0.00 67 1020.8
20260831130028 66 164 2.0 4.0 0.00 0.05 0.00 71 1020.7
20260831125028 65 320 1.0 2.0 0.00 0.05 0.00 74 1020.7
20260831124028 64 137 1.0 2.0 0.00 0.05 0.00 76 1020.7
20260831123028 62 122 1.0 3.0 0.00 0.05 0.00 86 1020.5
20260831122028 61 131 0.0 1.0 0.00 0.05 0.00 97 1020.6
20260831121028 60 134 0.0 0.0 0.00 0.05 0.00 97 1020.5
20260831120048 60 128 0.0 1.0 0.00 0.05 0.00 97 1020.5
20260831115028 59 133 0.0 1.0 0.00 0.05 0.00 97 1020.4
20260831114048 58 128 0.0 2.0 0.00 0.05 0.00 97 1020.3
20260831113028 58 107 0.0 1.0 0.00 0.05 0.00 97 1020.3
20260831112029 57 0.0 0.0 0.00 0.05 0.00 97 1020.1
20260831111029 57 126 0.0 0.0 0.00 0.05 0.00 97 1020.1